Flag for Germany Weather past 2 weeks in Apolda, Thuringia, Germany

Now
49 °F

Light rain. Low clouds.


Feels Like: 47 °F
Forecast: 40 / 50 °F
Wind: 6 mph from Northeast

Location: Erfurt-Bindersleben

Current Time: Apr 27, 2015 at 4:27:19 PM

Latest Report: Apr 27, 2015 at 4:00 PM


Visibility: 11 mi

Pressure: 29.67 "Hg

Humidity: 95%

Dew point: 48 °F

Location of ApoldaLocation

Historic Weather in Apolda — Graph

°F

Apolda temperature yesterday

Maximum temperature yesterday: 66 °F (at 4:00 PM)
Minimum temperature yesterday: 47 °F (at 5:00 AM)
Average temperature yesterday: 55 °F

Past Weeks' High & Low Weather Summary

 TemperatureHumidityPressure
High72 °F (Apr 15, 4:00 PM)100% (Apr 23, 5:00 AM)30.46 "Hg (Apr 23, 5:00 AM)
Low29 °F (Apr 19, 6:00 AM)23% (Apr 21, 7:00 PM)29.57 "Hg (Apr 27, 8:00 AM)
Average50 °F63%30.11 "Hg
* Reported Apr 12 3:00 PM — Apr 27 3:00 PM, Apolda, Weather by CustomWeather, © 2015

Note: Actual official high and low records may vary slightly from our data, if they occured in-between our weather recording intervals... More about our weather records

Advertising

Apolda weather history for previous 24 hours

 ConditionsComfort  
Time TempWeatherWind HumidityBarometerVisibility
3:00 PM
Mon, Apr 27
50 °FLight rain. Low clouds.5 mph97%29.66 "Hg7 mi
2:00 PM52 °FLow clouds.7 mph94%29.64 "Hg7 mi
1:00 PM55 °FOvercast.6 mph92%29.61 "Hg12 mi
12:00 PM56 °FLight rain. Overcast.2 mph92%29.60 "Hg22 mi
11:00 AM58 °FLight rain. Overcast.3 mph84%29.58 "Hg19 mi
10:00 AM57 °FLight rain. Overcast.3 mph89%29.57 "Hg25 mi
9:00 AM55 °FSprinkles. Partly sunny.3 mph92%29.57 "Hg25 mi
8:00 AM55 °FOvercast.5 mph90%29.57 "Hg19 mi
7:00 AM54 °FSprinkles. Overcast.5 mph87%29.57 "Hg16 mi
6:00 AM51 °FOvercast.2 mph91%29.58 "Hg22 mi
5:00 AM51 °FOvercast.2 mph93%29.59 "Hg19 mi
4:00 AM52 °FCool.3 mph89%29.61 "HgN/A
3:00 AM52 °FLight rain. Overcast.3 mph87%29.61 "Hg25 mi
2:00 AM53 °FOvercast.3 mph86%29.65 "Hg31 mi
1:00 AM53 °FOvercast.1 mph86%29.66 "Hg31 mi
12:00 AM53 °FOvercast.2 mph89%29.68 "Hg31 mi
11:00 PM
Sun, Apr 26
52 °FPassing clouds.3 mph88%29.69 "Hg37 mi
10:00 PM54 °FPassing clouds.3 mph84%29.70 "Hg47 mi
9:00 PM55 °FOvercast.3 mph82%29.69 "Hg47 mi
8:00 PM56 °FOvercast.3 mph79%29.70 "Hg47 mi
7:00 PM58 °FOvercast.3 mph76%29.70 "Hg43 mi
6:00 PM60 °FOvercast.6 mph69%29.70 "Hg43 mi
5:00 PM63 °FOvercast.3 mph55%29.70 "Hg43 mi
4:00 PM66 °FPartly sunny.6 mph54%29.69 "Hg37 mi
Weather by CustomWeather, © 2015

See weather overviewHow to use our weather pages